sat.trackr.live / text

‹ back to catalog

STARLINK-4623

NORAD 55315 · 2023-010AY

PAYLOAD ACTIVE UNKNOWN

§ Identity

Operator
Country
US
Launch date
2023-01-19
Launch site
AFWTR
Launch vehicle
Mass (kg)
RCS (m²)

Purposes: comms

External: N2YO · Heavens-Above · Gunter

§ Orbital elements

Epoch: 2026-05-25T03:52:27.075072Z

Period
96.11 min
Inclination
69.9986°
Eccentricity
0.0004048
Mean motion
14.98332144 rev/d
Perigee alt
569.2 km
Apogee alt
574.9 km
Semi-major
6,950.2 km
B*
1.7256e-7
RAAN
191.6513°
Arg perigee
268.1274°
Mean anomaly
91.9421°
Rev number
18,471

§ Raw data

STARLINK-46231 55315U 23010AY  26145.16142448 -.00000091  00000+0  17256-6 0  99902 55315  69.9986 191.6513 0004048 268.1274  91.9421 14.98332144184716

JSON: /api/v1/satellites/55315 · /tle

For live sub-satellite position, see the globe view (requires WebGL).

§ Visibility from observer

Set your observer location to see the next 7 days of passes ≥ 10°. The values pass through the URL so the page stays shareable.

No JS? Fill the form by hand. The geolocation button needs JavaScript.